Wind_Speed
48 48 48 48 50 52 55 54 51 49 47 45 49 50 50 49 48 45 41 41 43 43 42 45 41 40 42 46 46 43 45 41 41 41 42 47 50 50 51 51 47 44 43
47 48 51 52 55 57 57 57 56 53 50 49 49 51 52 50 49 46 45 42 46 40 40 36 35 38 43 48 49 49 44 43 46 44 44 46 50 53 52 52 51 46 45
52 52 54 55 56 57 57 57 58 58 55 54 53 53 52 51 51 48 50 47 49 47 39 42 43 40 42 51 55 50 48 45 47 45 43 45 48 52 53 51 51 49 46
52 53 55 56 58 59 61 62 61 60 57 55 53 52 53 54 53 50 50 49 50 47 46 40 39 42 40 53 56 51 49 47 48 47 43 43 49 55 55 51 50 49 47
55 57 58 59 60 61 60 60 58 57 55 55 54 51 50 50 51 51 50 52 53 51 52 52 54 45 55 55 52 50 47 44 47 43 40 36 34 44 51 51 51 51 48
55 56 56 57 54 54 56 57 56 57 57 59 57 55 49 47 47 51 50 53 53 55 57 57 55 48 48 50 51 50 42 43 47 41 37 32 33 38 44 47 50 50 49
54 56 55 54 53 52 52 53 53 47 47 49 50 45 43 40 43 46 49 52 52 52 55 56 53 50 48 48 49 47 43 46 44 39 35 31 33 35 40 41 44 46 47
55 54 52 53 53 52 53 49 46 49 49 46 45 41 35 33 36 40 43 47 48 49 49 50 49 46 47 46 46 44 45 46 45 42 37 32 31 32 35 37 38 42 44
51 50 53 52 50 49 45 46 44 45 45 38 33 25 26 29 33 35 38 40 42 44 44 44 44 43 43 44 45 43 45 43 41 35 32 30 29 29 32 33 36 38 40
47 48 53 48 47 44 46 44 45 42 36 34 30 28 30 26 30 32 34 35 37 39 40 42 42 43 43 43 43 42 39 44 36 27 28 27 26 25 27 29 31 33 34
48 50 51 44 46 50 45 44 40 36 34 31 29 29 29 35 36 34 34 34 33 35 36 38 40 41 41 40 38 34 30 25 20 22 24 23 22 22 24 25 28 31 33
48 47 47 43 46 44 43 40 38 36 33 33 28 34 37 34 34 32 33 33 32 33 34 36 36 35 34 30 27 25 22 19 19 24 23 22 20 19 19 21 26 30 30
47 45 44 42 43 40 41 39 38 35 34 36 34 35 38 38 34 30 29 28 28 28 30 31 31 24 22 21 20 23 23 22 21 20 19 18 18 12 15 17 21 21 21
43 42 40 40 38 38 38 38 37 33 32 33 36 33 37 32 21 17 15 18 21 20 16 9 10 13 16 19 20 17 26 25 24 24 23 22 20 16 20 19 18 18 17
40 38 37 35 35 33 32 34 34 34 34 35 38 38 31 22 20 16 15 9 5 3 4 8 10 11 11 11 11 14 20 23 19 20 21 21 21 21 21 17 14 16 14
37 36 33 31 32 30 29 31 36 34 35 35 40 40 26 22 17 7 6 6 6 7 7 7 8 9 10 11 11 15 22 23 20 20 20 14 12 22 17 17 12 10 6
35 34 33 31 31 30 29 28 27 32 33 33 34 38 26 13 9 8 6 6 6 7 8 7 8 10 12 13 18 18 25 30 24 21 21 19 14 17 16 17 17 14 14
35 34 34 33 31 31 30 29 29 28 27 31 31 32 40 16 10 10 9 5 2 5 8 7 8 12 15 14 8 16 20 25 24 22 19 17 19 20 19 18 20 20 17
35 36 37 34 31 31 31 31 30 29 28 27 29 29 30 24 11 8 9 7 5 6 9 9 8 10 13 12 13 13 16 18 21 25 18 18 25 24 25 20 19 19 18
36 36 35 33 33 31 31 31 31 29 26 25 24 25 25 22 22 12 7 10 9 9 10 11 10 10 12 13 13 16 17 19 21 24 21 16 26 31 26 22 22 24 24
39 38 36 35 34 32 31 31 29 29 27 24 24 22 21 21 18 19 15 14 13 12 12 15 16 15 15 16 15 16 15 24 27 26 22 23 21 20 19 25 26 26 25
40 39 37 35 33 32 31 32 32 30 30 27 25 24 22 22 20 18 15 17 14 10 6 14 12 19 18 19 19 17 17 18 20 18 18 21 25 27 24 26 27 27 26
40 40 39 38 37 35 35 34 33 32 31 30 28 26 25 23 22 22 18 16 17 18 15 16 16 19 23 24 23 23 24 23 23 23 23 24 25 26 26 28 28 28 28
40 39 38 37 36 34 33 33 32 32 32 30 30 28 27 26 25 25 26 22 20 21 19 20 23 24 25 26 33 29 29 28 28 27 28 27 27 28 30 31 31 30 30
41 39 38 36 35 35 35 34 33 33 32 32 31 30 28 28 27 27 28 29 28 25 25 25 25 25 25 25 22 30 33 31 33 33 34 32 32 32 33 34 34 35 36
43 43 43 42 39 38 37 37 37 36 35 34 33 34 34 33 32 32 31 30 31 30 31 31 29 28 29 29 26 28 26 30 39 39 38 38 39 39 38 38 38 37 36
Wind_Direction
310 307 303 302 303 304 303 301 298 296 292 289 284 283 283 280 279 281 280 276 280 291 292 256 262 272 276 276 282 280 280 277 276 271 265 260 254 253 253 252 248 248 249
308 307 307 305 303 301 299 299 298 296 291 284 279 280 281 279 277 276 271 270 279 282 275 263 267 274 275 279 279 283 279 277 275 274 268 263 259 254 251 253 252 247 247
305 304 303 301 300 299 298 298 297 295 293 289 284 279 276 275 275 273 263 266 272 270 274 257 251 267 274 275 278 282 282 281 281 277 274 261 253 255 251 248 253 251 247
304 302 301 301 299 298 298 298 296 294 292 289 285 281 279 275 274 273 260 266 265 268 269 269 250 259 271 269 277 283 283 283 282 282 278 268 251 245 250 246 248 251 250
306 305 304 305 304 302 301 300 299 296 294 294 291 287 281 277 272 268 260 261 260 262 265 262 260 255 261 267 274 280 281 281 281 284 279 274 252 242 244 245 246 246 247
305 306 306 306 306 305 305 304 301 298 296 295 291 288 282 271 266 265 258 256 256 257 259 263 267 266 265 268 272 277 277 275 277 276 273 267 250 241 244 247 248 249 249
310 310 311 311 311 312 311 309 310 305 305 306 296 284 281 273 265 260 260 260 258 256 256 261 268 272 271 270 271 272 274 272 273 269 268 258 249 245 249 249 249 252 252
314 315 317 316 315 313 312 313 311 307 311 311 300 288 284 273 265 262 259 260 260 260 262 264 268 270 269 269 268 270 270 270 268 263 257 256 252 246 252 254 253 252 252
316 318 320 317 317 318 317 318 313 319 317 318 315 288 291 287 279 271 266 264 265 267 268 267 266 265 264 264 268 271 271 269 262 246 247 248 251 253 253 254 252 251 250
317 319 322 321 323 324 322 318 318 319 324 318 317 301 285 283 290 281 273 267 263 262 262 262 262 262 264 268 269 271 271 272 240 225 238 246 255 257 255 250 251 251 247
318 320 323 321 323 321 322 323 322 327 323 317 311 305 295 285 287 280 274 271 266 262 261 260 259 259 262 265 264 265 268 229 214 224 235 245 245 255 256 256 255 256 252
321 322 324 320 322 323 325 324 324 326 328 328 321 320 310 296 288 283 278 273 267 263 258 257 254 256 261 254 251 250 249 224 227 229 237 240 252 261 260 261 262 253 253
321 321 323 322 322 327 327 326 326 331 329 327 323 326 316 309 300 278 280 275 271 265 261 256 257 250 253 245 240 243 233 236 234 228 233 234 234 263 281 283 266 258 237
325 327 325 323 323 326 325 327 331 338 337 337 333 330 325 320 322 308 297 293 268 267 258 230 241 239 244 240 234 242 231 238 220 219 225 225 227 245 269 271 261 260 256
328 328 328 326 329 330 332 330 334 337 340 340 337 333 331 327 319 302 296 307 5 303 226 247 248 246 239 245 253 233 221 227 228 215 219 229 239 255 243 251 249 252 227
326 326 327 326 329 333 337 338 335 337 338 337 340 338 318 321 331 312 306 266 266 293 279 259 241 229 240 248 241 225 218 221 225 222 219 229 242 210 228 236 240 228 228
327 326 326 323 323 326 329 333 338 338 339 341 340 340 343 327 322 320 319 303 288 284 271 273 239 237 247 242 228 221 228 207 230 223 221 233 221 233 240 231 229 222 210
325 325 325 323 320 322 324 325 327 327 329 332 340 339 341 314 305 309 310 311 289 283 268 273 274 259 246 240 252 232 201 206 211 211 220 217 222 229 232 229 221 225 216
320 321 321 320 317 318 319 320 321 326 329 328 328 337 344 349 311 310 313 305 272 259 267 271 258 253 239 231 225 228 210 215 215 216 223 236 235 237 219 221 222 224 225
317 317 316 314 313 314 315 317 319 322 324 325 327 326 331 343 346 328 325 318 300 287 289 276 273 261 245 237 230 229 225 219 229 218 245 242 243 230 218 226 224 221 219
318 316 313 311 311 310 309 310 311 315 318 319 318 320 322 323 332 330 325 322 299 286 272 270 263 253 242 245 238 238 239 221 223 218 222 242 226 225 221 223 221 219 217
316 315 313 309 308 305 304 306 308 307 306 307 307 308 310 312 315 316 319 313 294 275 272 273 260 245 242 242 238 235 233 228 233 244 232 234 234 233 225 219 224 223 222
314 311 309 307 307 305 304 303 303 302 302 303 302 300 298 298 299 299 297 294 293 297 292 275 273 258 254 242 238 239 233 227 231 233 236 238 238 237 230 232 228 225 225
316 314 312 311 309 306 305 304 302 302 301 300 298 297 294 292 288 286 287 288 282 280 280 276 272 277 251 252 245 244 236 234 230 229 236 234 235 235 235 236 233 230 228
316 315 314 313 311 308 307 305 303 302 300 298 296 294 291 288 286 284 282 280 277 272 270 270 270 270 268 264 251 244 238 239 237 233 231 232 236 235 235 233 234 234 231
313 311 311 310 309 307 306 305 303 302 300 298 297 294 292 289 284 280 278 275 274 272 268 266 265 264 267 268 266 263 260 244 238 235 233 231 233 233 233 233 234 234 236
Height
5886 5881 5876 5871 5865 5860 5855 5850 5847 5843 5838 5835 5831 5828 5826 5823 5819 5816 5815 5811 5807 5803 5797 5797 5801 5801 5801 5803 5803 5802 5802 5798 5802 5807 5806 5805 5803 5800 5802 5806 5808 5814 5818
5876 5871 5865 5859 5853 5848 5842 5836 5832 5828 5825 5821 5817 5812 5809 5807 5804 5801 5800 5797 5793 5793 5789 5787 5789 5787 5789 5790 5789 5790 5787 5785 5785 5790 5789 5790 5792 5789 5788 5792 5797 5800 5805
5866 5860 5854 5848 5842 5835 5829 5823 5816 5810 5808 5805 5802 5799 5796 5793 5789 5787 5784 5783 5781 5779 5776 5773 5773 5777 5777 5775 5773 5775 5773 5771 5771 5772 5777 5773 5775 5777 5777 5779 5784 5788 5792
5856 5849 5842 5835 5828 5820 5813 5806 5799 5792 5787 5783 5780 5778 5776 5774 5771 5768 5768 5767 5765 5761 5759 5759 5761 5761 5756 5761 5759 5759 5758 5757 5757 5756 5759 5757 5757 5761 5764 5767 5772 5775 5779
5843 5835 5828 5820 5812 5804 5796 5788 5781 5774 5768 5764 5761 5758 5755 5753 5753 5751 5749 5748 5747 5746 5744 5746 5747 5746 5748 5748 5746 5745 5746 5745 5743 5742 5744 5743 5743 5747 5750 5753 5757 5762 5765
5831 5823 5815 5806 5797 5789 5781 5773 5764 5757 5751 5745 5740 5736 5734 5733 5733 5732 5732 5732 5732 5731 5731 5730 5729 5732 5734 5734 5732 5732 5733 5732 5732 5731 5731 5733 5735 5738 5739 5741 5744 5749 5755
5818 5809 5800 5792 5783 5775 5766 5757 5749 5742 5735 5728 5720 5717 5715 5715 5715 5714 5714 5714 5715 5716 5716 5715 5715 5717 5719 5718 5719 5719 5719 5718 5718 5719 5721 5721 5724 5726 5727 5731 5732 5736 5740
5804 5794 5786 5778 5769 5761 5752 5744 5735 5728 5720 5712 5704 5699 5697 5699 5699 5699 5698 5697 5698 5699 5700 5701 5702 5704 5704 5705 5705 5705 5704 5704 5704 5705 5710 5711 5713 5714 5716 5718 5721 5724 5727
5792 5784 5775 5766 5757 5748 5740 5733 5725 5717 5708 5700 5693 5690 5689 5689 5686 5685 5683 5683 5684 5685 5685 5686 5688 5690 5691 5692 5691 5691 5691 5689 5691 5694 5697 5700 5702 5704 5706 5707 5709 5712 5715
5783 5774 5765 5754 5746 5738 5730 5723 5716 5707 5701 5694 5689 5683 5680 5680 5677 5674 5671 5670 5672 5672 5673 5674 5675 5676 5676 5678 5678 5677 5675 5676 5677 5683 5688 5690 5693 5694 5696 5698 5700 5702 5706
5774 5765 5755 5745 5737 5728 5720 5713 5707 5701 5695 5689 5684 5678 5673 5669 5667 5663 5660 5659 5659 5660 5660 5661 5661 5662 5664 5665 5666 5667 5667 5664 5670 5676 5680 5682 5685 5687 5689 5691 5692 5694 5696
5765 5756 5746 5737 5729 5720 5712 5705 5699 5693 5687 5681 5676 5671 5663 5658 5654 5651 5648 5646 5647 5648 5648 5648 5650 5652 5653 5654 5656 5658 5659 5662 5665 5669 5673 5676 5680 5682 5683 5684 5684 5684 5687
5756 5747 5738 5729 5721 5713 5705 5699 5692 5686 5680 5674 5667 5661 5653 5645 5639 5638 5636 5635 5634 5635 5635 5637 5639 5642 5644 5646 5649 5650 5653 5658 5661 5665 5668 5671 5675 5677 5677 5678 5677 5677 5681
5747 5739 5730 5723 5714 5707 5699 5692 5686 5681 5675 5668 5660 5652 5645 5638 5634 5631 5630 5629 5626 5626 5628 5631 5634 5636 5638 5640 5642 5644 5648 5652 5655 5660 5664 5668 5670 5673 5673 5674 5673 5674 5674
5738 5731 5724 5717 5709 5702 5694 5687 5682 5675 5668 5661 5654 5646 5639 5634 5630 5628 5626 5626 5623 5624 5626 5628 5630 5631 5633 5636 5637 5641 5644 5645 5650 5655 5660 5663 5666 5668 5670 5671 5671 5671 5673
5731 5725 5718 5712 5706 5698 5691 5684 5675 5670 5665 5657 5649 5643 5635 5630 5627 5624 5625 5624 5624 5624 5625 5626 5628 5629 5631 5632 5634 5637 5640 5644 5648 5652 5656 5659 5661 5663 5667 5669 5670 5670 5671
5725 5719 5713 5707 5701 5695 5688 5682 5677 5667 5660 5655 5648 5640 5632 5629 5627 5625 5623 5623 5623 5623 5623 5625 5625 5627 5628 5629 5630 5634 5636 5639 5644 5648 5651 5655 5658 5660 5663 5665 5667 5670 5673
5718 5712 5706 5700 5695 5689 5683 5677 5672 5667 5661 5653 5648 5642 5635 5629 5628 5626 5624 5622 5622 5622 5622 5623 5624 5625 5625 5626 5627 5628 5626 5635 5640 5644 5648 5650 5654 5658 5660 5662 5664 5667 5670
5711 5706 5700 5694 5689 5683 5678 5672 5666 5661 5656 5650 5644 5639 5633 5627 5626 5625 5624 5622 5621 5620 5620 5620 5620 5620 5622 5623 5625 5626 5629 5633 5637 5641 5644 5646 5651 5652 5655 5658 5661 5664 5667
5703 5697 5692 5686 5681 5676 5670 5665 5660 5656 5651 5646 5642 5637 5633 5629 5625 5620 5621 5620 5619 5618 5618 5618 5618 5618 5619 5621 5622 5624 5627 5627 5634 5637 5634 5637 5642 5647 5650 5654 5657 5660 5664
5695 5689 5684 5679 5674 5668 5664 5659 5654 5649 5645 5641 5637 5633 5630 5627 5624 5621 5618 5615 5616 5615 5614 5614 5614 5614 5616 5618 5619 5621 5622 5623 5627 5631 5631 5635 5639 5641 5645 5648 5652 5655 5659
5685 5680 5675 5670 5665 5660 5656 5651 5647 5643 5638 5635 5632 5628 5625 5621 5619 5616 5615 5614 5611 5611 5609 5609 5605 5608 5610 5612 5614 5616 5618 5620 5621 5620 5624 5629 5633 5636 5639 5644 5647 5649 5653
5675 5670 5666 5661 5656 5651 5647 5642 5638 5634 5631 5627 5624 5621 5618 5615 5613 5610 5609 5608 5606 5605 5604 5604 5604 5604 5604 5605 5607 5609 5611 5613 5616 5618 5620 5623 5627 5630 5633 5637 5641 5644 5648
5666 5660 5655 5650 5646 5641 5637 5633 5629 5625 5621 5618 5615 5612 5610 5607 5606 5604 5601 5601 5600 5598 5598 5597 5597 5596 5595 5596 5597 5599 5602 5605 5607 5609 5612 5615 5619 5622 5626 5629 5633 5636 5641
5655 5649 5644 5640 5636 5631 5627 5623 5619 5615 5612 5608 5605 5603 5600 5598 5596 5594 5592 5591 5590 5590 5590 5589 5588 5588 5588 5587 5588 5588 5591 5594 5597 5600 5603 5606 5609 5612 5615 5620 5624 5627 5631
5644 5639 5633 5629 5624 5620 5616 5612 5608 5604 5600 5597 5594 5591 5589 5586 5585 5583 5582 5581 5580 5579 5579 5579 5578 5578 5578 5578 5579 5580 5580 5581 5584 5587 5591 5594 5597 5601 5604 5608 5612 5616 5621